[[{"header":{"parameterUnit":"m.s-1","parameterCategory":2,"la1":30.2991,"la2":30.254,"lo1":-89.0895,"lo2":-89.0444,"dy":0.0017,"dx":0.0017,"nx":28,"ny":28,"refTime":"2024-06-24T21:00:00:Z","depth":"0","parameterNumber":2,"parameterNumberName":"U-component_of_CURRENTS"},"data":[0,0,0,0,0,0,0,0,0,0,0,0,0,0,0,0,0,0,0,0,0,0,0,0,0,0,0,0,0,0,0,0,0,0,0,0,0,0,0,0,0,0,0,0,0,0,0,0,0,0,0,0,0,0,0,0,0,0,0.4936,0.4937,0,0.5031,0.5032,0.5033,0.506,0.5059,0.5059,0.5058,0.5146,0.5149,0.5151,0,0,0,0,0,0,0,0,0,0,0,0,0,0.4799,0.4801,0.4936,0.4937,0.4939,0.503,0.5032,0.5033,0.506,0.5059,0.5059,0.5058,0.5145,0.5148,0.5152,0,0,0,0,0,0,0,0,0,0,0,0,0,0.4872,0.4801,0.4936,0.4963,0.4967,0.503,0.5032,0.5033,0.506,0.5059,0.5059,0.5058,0.5144,0.5148,0.5152,0.5192,0,0,0.5165,0.5167,0,0,0,0,0,0,0,0,0.4867,0.4877,0.4958,0.4962,0.4966,0.5033,0.5015,0.5086,0.506,0.5024,0.5058,0.5058,0.5108,0.5115,0.5134,0.5196,0.52,0.5165,0.5168,0.5169,0.5171,0,0,0,0,0,0,0,0.4862,0.4873,0.4973,0.496,0.4964,0.4978,0.4987,0.5029,0.5069,0.5027,0.503,0.5041,0.511,0.513,0.5136,0.5201,0.5165,0.5169,0.5171,0.5173,0.5258,0.5258,0,0,0,0,0,0,0.4852,0.4868,0.497,0.4976,0.4914,0.4981,0.4991,0.5012,0.5068,0.5077,0.5042,0.5042,0.5123,0.5132,0.514,0.5174,0.5169,0.5173,0.5176,0.5258,0.5258,0.5258,0,0,0,0,0,0,0.4849,0.486,0.4966,0.4924,0.4938,0.4984,0.5007,0.5014,0.5035,0.5079,0.5087,0.5054,0.5123,0.5134,0.5161,0.5178,0.5175,0.5179,0.5259,0.5258,0.5258,0.5254,0,0,0,0,0,0,0.4844,0.4859,0.4871,0.4923,0.494,0.5022,0.5008,0.5016,0.5043,0.5044,0.5093,0.51,0.5123,0.5154,0.5165,0.5184,0.5182,0.5259,0.5258,0.5258,0.5254,0.5253,0.5252,0,0,0,0,0,0.4839,0.4872,0.4871,0.4883,0.4955,0.5024,0.5035,0.5063,0.5044,0.5074,0.5075,0.5099,0.5159,0.5158,0.517,0.5191,0.5259,0.5259,0.5258,0.5254,0.5253,0.5252,0,0,0,0,0,0,0.4826,0.4879,0.4879,0.4927,0.4974,0.5029,0.5058,0.5064,0.509,0.5083,0.5102,0.5111,0.5156,0.5161,0.5159,0.521,0.5212,0.5214,0.5205,0.5204,0.5203,0.5289,0.5186,0,0,0,0,0,0.4825,0.486,0.4911,0.4949,0.4972,0.5008,0.5035,0.5056,0.5086,0.5097,0.5118,0.5134,0.5166,0.5171,0.5217,0.5234,0.532,0.5251,0.525,0.525,0.5325,0.5427,0.5444,0.5256,0.5256,0.5256,0,0,0.4828,0.4863,0.4882,0.4948,0.4981,0.5036,0.5024,0.5077,0.5114,0.5103,0.5146,0.5156,0.5176,0.5209,0.5226,0.5209,0.5343,0.5249,0.5248,0.5327,0.5429,0.5448,0.5465,0.5256,0.5256,0.5256,0,0,0.4872,0.4886,0.4935,0.4973,0.5031,0.5059,0.5072,0.5123,0.5139,0.5176,0.5174,0.5193,0.5225,0.5248,0.5259,0.5281,0.5357,0.5267,0.5314,0.5408,0.5427,0.5444,0.5567,0.5595,0.5239,0.5239,0.5239,0,0.4879,0.4943,0.4961,0.5019,0.5056,0.5068,0.5131,0.5155,0.5203,0.5222,0.5194,0.5255,0.5262,0.5311,0.5311,0.5289,0.5365,0.5311,0.5413,0.5432,0.545,0.5572,0.5604,0.5238,0.5238,0.5238,0.5238,0,0.4964,0.5008,0.5042,0.5112,0.5152,0.5211,0.5243,0.5274,0.5273,0.5292,0.5345,0.5343,0.5385,0.5358,0.5347,0.5449,0.5471,0.5422,0.5426,0.547,0.5594,0.5627,0.5238,0.5238,0.5238,0.5238,0,0,0.501,0.5089,0.51,0.5137,0.5205,0.5251,0.5307,0.5374,0.5414,0.5425,0.5489,0.5504,0.55,0.5517,0.5485,0.5543,0.5706,0.5536,0.554,0.568,0.5957,0.5922,0.5955,0.5668,0.5673,0.5678,0.5991,0,0.5079,0.5182,0.521,0.5302,0.5354,0.5378,0.5435,0.5482,0.5504,0.5562,0.5558,0.5613,0.5554,0.557,0.5624,0.571,0.5795,0.563,0.588,0.589,0.587,0.5993,0.5704,0.5955,0.6023,0.6029,0.6033,0,0.516,0.5216,0.5313,0.5391,0.542,0.5472,0.5558,0.5611,0.5678,0.57,0.574,0.5749,0.5853,0.5775,0.5988,0.5885,0.5957,0.6001,0.6012,0.6027,0.5918,0.5923,0.6013,0.5839,0.6084,0.608,0.6076,0,0.5178,0.5287,0.5361,0.539,0.5482,0.5529,0.5581,0.565,0.5704,0.5799,0.5856,0.5947,0.6024,0.6129,0.6221,0.6132,0.6466,0.6338,0.6384,0.6382,0.622,0.6194,0.6198,0.6527,0.6527,0.6526,0.6525,0,0.5234,0.5287,0.5372,0.5409,0.5489,0.5554,0.5643,0.5698,0.5804,0.5868,0.593,0.601,0.6123,0.6281,0.6336,0.6506,0.6572,0.6485,0.6484,0.6204,0.6174,0.608,0.601,0.6537,0.6535,0.6533,0.653,0,0.5214,0.5284,0.5357,0.5461,0.5492,0.5541,0.5657,0.5718,0.5839,0.5936,0.5983,0.6144,0.6346,0.6468,0.6677,0.6672,0.6639,0.6843,0.6529,0.6486,0.6303,0.6243,0.6176,0.6004,0.6956,0.6958,0.6959,0,0.5197,0.5241,0.5354,0.5388,0.5428,0.5512,0.5566,0.5701,0.5768,0.5987,0.6036,0.6279,0.6391,0.6731,0.6797,0.6967,0.6702,0.6768,0.6532,0.634,0.6273,0.6022,0.586,0.6315,0.6311,0.6308,0.6305,0,0.5142,0.5193,0.5251,0.5321,0.5381,0.545,0.5544,0.5607,0.5766,0.5875,0.6043,0.6173,0.6489,0.6524,0.6758,0.679,0.6428,0.6703,0.6566,0.5873,0.5541,0.5354,0.6093,0.6274,0.6277,0.6279,0.6281,0.6282,0.5071,0.5089,0.5169,0.5232,0.5292,0.5346,0.5353,0.5467,0.5561,0.5663,0.591,0.6019,0.6178,0.6461,0.6485,0.6316,0.6304,0.6074,0.6061,0.5857,0.5545,0.6261,0.6383,0.6386,0.6389,0.6392,0.6395,0,0.4945,0.4997,0.5063,0.5114,0.5133,0.5214,0.5292,0.5261,0.5282,0.5467,0.5589,0.5688,0.574,0.5833,0.584,0.569,0.5403,0.5507,0.5042,0.4947,0.5647,0.5467,0.5315,0.5316,0.5316,0.5316,0.5316,0.5316,0.4876,0.4902,0.4959,0.4945,0.4971,0.491,0.492,0.4886,0.4967,0.4928,0.4955,0.5107,0.5306,0.5401,0.5254,0.5133,0.4763,0.4562,0.46,0.5045,0.5092,0.5136,0.4947,0.469,0.4689,0.3613,0.3606,0.36]},{"header":{"parameterUnit":"m.s-1","parameterCategory":2,"la1":30.2991,"la2":30.254,"lo1":-89.0895,"lo2":-89.0444,"dy":0.0017,"dx":0.0017,"nx":28,"ny":28,"refTime":"2024-06-24T21:00:00:Z","depth":"0","parameterNumber":3,"parameterNumberName":"V-component_of_CURRENTS"},"data":[0,0,0,0,0,0,0,0,0,0,0,0,0,0,0,0,0,0,0,0,0,0,0,0,0,0,0,0,0,0,0,0,0,0,0,0,0,0,0,0,0,0,0,0,0,0,0,0,0,0,0,0,0,0,0,0,0,0,-0.1436,-0.1437,0,-0.1545,-0.1547,-0.1548,-0.1638,-0.1639,-0.164,-0.164,-0.1732,-0.1734,-0.1736,0,0,0,0,0,0,0,0,0,0,0,0,0,-0.1383,-0.1383,-0.1436,-0.1437,-0.1438,-0.1545,-0.1547,-0.1549,-0.1638,-0.1639,-0.164,-0.164,-0.1732,-0.1734,-0.1736,0,0,0,0,0,0,0,0,0,0,0,0,0,-0.1445,-0.1384,-0.1436,-0.1492,-0.1498,-0.1544,-0.1547,-0.1549,-0.1638,-0.1639,-0.164,-0.1641,-0.1731,-0.1734,-0.1736,-0.1738,0,0,-0.1745,-0.1747,0,0,0,0,0,0,0,0,-0.1441,-0.1447,-0.1483,-0.1488,-0.1495,-0.1575,-0.1562,-0.161,-0.1638,-0.159,-0.164,-0.1641,-0.1674,-0.1682,-0.1708,-0.1743,-0.1747,-0.1746,-0.1747,-0.1749,-0.175,0,0,0,0,0,0,0,-0.1436,-0.1443,-0.1484,-0.1484,-0.1491,-0.1538,-0.1548,-0.1572,-0.1629,-0.1594,-0.16,-0.1604,-0.1678,-0.1705,-0.171,-0.1748,-0.1746,-0.1748,-0.175,-0.1751,-0.1746,-0.1744,0,0,0,0,0,0,-0.1409,-0.1439,-0.148,-0.1487,-0.1464,-0.1538,-0.1549,-0.1552,-0.163,-0.1641,-0.1604,-0.1608,-0.1699,-0.1707,-0.1714,-0.1654,-0.1749,-0.1751,-0.1753,-0.1748,-0.1746,-0.1743,0,0,0,0,0,0,-0.1407,-0.1411,-0.1476,-0.1462,-0.1473,-0.1537,-0.1541,-0.1554,-0.1573,-0.1636,-0.1649,-0.1608,-0.17,-0.171,-0.1722,-0.1661,-0.1753,-0.1755,-0.175,-0.1747,-0.1745,-0.1578,0,0,0,0,0,0,-0.1405,-0.141,-0.1399,-0.146,-0.1472,-0.1478,-0.154,-0.1555,-0.1573,-0.158,-0.1644,-0.1654,-0.1701,-0.1717,-0.1724,-0.1667,-0.1758,-0.1752,-0.1749,-0.1745,-0.1585,-0.1569,-0.1556,0,0,0,0,0,-0.1403,-0.1375,-0.1398,-0.1403,-0.1456,-0.1476,-0.1486,-0.1539,-0.1572,-0.1564,-0.1612,-0.1652,-0.1699,-0.1718,-0.1727,-0.1669,-0.1754,-0.175,-0.1746,-0.1592,-0.1573,-0.1556,0,0,0,0,0,0,-0.1333,-0.1383,-0.141,-0.1395,-0.1423,-0.1489,-0.1481,-0.1525,-0.1561,-0.1564,-0.1636,-0.1649,-0.1639,-0.1679,-0.1698,-0.1658,-0.1729,-0.1727,-0.1609,-0.1591,-0.1577,-0.1543,-0.176,0,0,0,0,0,-0.1314,-0.1311,-0.1363,-0.1345,-0.1355,-0.1417,-0.1432,-0.1467,-0.1508,-0.1526,-0.1571,-0.1609,-0.163,-0.1631,-0.1665,-0.164,-0.1633,-0.1607,-0.1592,-0.1579,-0.1558,-0.1499,-0.1475,-0.1729,-0.173,-0.173,0,0,-0.1278,-0.1304,-0.1301,-0.1331,-0.1358,-0.1339,-0.1428,-0.1432,-0.1413,-0.1526,-0.1509,-0.1566,-0.1617,-0.1596,-0.1591,-0.1616,-0.1497,-0.1573,-0.1562,-0.1548,-0.1492,-0.1467,-0.1444,-0.1727,-0.1727,-0.1728,0,0,-0.1188,-0.1228,-0.1191,-0.1207,-0.1234,-0.1273,-0.1265,-0.132,-0.1342,-0.1344,-0.1413,-0.1431,-0.1467,-0.1483,-0.1498,-0.1418,-0.1432,-0.1426,-0.1305,-0.1246,-0.1224,-0.1204,-0.113,-0.1106,-0.1402,-0.1402,-0.1401,0,-0.1136,-0.1104,-0.1178,-0.1141,-0.1131,-0.1229,-0.1173,-0.1207,-0.1257,-0.1253,-0.1311,-0.1348,-0.1407,-0.1358,-0.1343,-0.1379,-0.1344,-0.1366,-0.1222,-0.1203,-0.1186,-0.1115,-0.109,-0.1393,-0.1394,-0.1395,-0.1396,0,-0.1021,-0.0992,-0.0966,-0.0954,-0.0957,-0.0927,-0.0979,-0.0985,-0.1033,-0.1068,-0.1056,-0.1142,-0.1155,-0.1176,-0.1242,-0.1143,-0.1155,-0.1218,-0.1259,-0.1149,-0.1083,-0.1059,-0.1381,-0.1384,-0.1386,-0.1389,0,0,-0.0891,-0.0885,-0.0868,-0.0836,-0.0856,-0.0844,-0.0808,-0.08,-0.0765,-0.0828,-0.0766,-0.0838,-0.0898,-0.0919,-0.0993,-0.096,-0.0824,-0.1025,-0.1026,-0.0934,-0.0659,-0.0659,-0.0635,-0.085,-0.0846,-0.0843,-0.0648,0,-0.0765,-0.0663,-0.0693,-0.0587,-0.054,-0.0606,-0.0564,-0.0577,-0.0611,-0.0583,-0.066,-0.0648,-0.0791,-0.0789,-0.0776,-0.0821,-0.076,-0.0869,-0.0795,-0.0792,-0.0791,-0.0607,-0.0627,-0.0455,-0.0626,-0.0622,-0.0619,0,-0.0624,-0.0581,-0.0459,-0.0415,-0.0397,-0.0352,-0.0309,-0.0286,-0.029,-0.0312,-0.0319,-0.0393,-0.0367,-0.0511,-0.0478,-0.0534,-0.0571,-0.0612,-0.0606,-0.065,-0.0749,-0.0601,-0.0407,-0.0701,-0.0584,-0.0587,-0.0589,0,-0.0497,-0.041,-0.031,-0.0292,-0.026,-0.0211,-0.0195,-0.0193,-0.0154,-0.0127,-0.0082,-0.0105,-0.0078,-0.0132,-0.0243,-0.0334,-0.0192,-0.0328,-0.0349,-0.035,-0.0375,-0.0385,-0.0444,-0.0265,-0.0265,-0.0266,-0.0266,0,-0.0355,-0.0273,-0.0244,-0.0189,-0.0075,-0.0091,0.002,0.0021,0.0069,0.0163,0.0073,0.0165,0.0021,0.0047,-0.0092,-0.0108,-0.0054,-0.0267,-0.0277,-0.0317,-0.0323,-0.0594,-0.0768,-0.0258,-0.026,-0.0261,-0.0263,0,-0.0239,-0.0213,-0.0105,-0.0043,-0.0015,0.0061,0.0138,0.021,0.0248,0.0383,0.0415,0.0431,0.0485,0.0352,0.0306,0.0128,-0.0069,0.0046,0.0018,-0.0,-0.0357,-0.0519,-0.0545,-0.068,0.0062,0.0064,0.0065,0,-0.0173,-0.0103,-0.0007,0.0052,0.0085,0.0183,0.025,0.0293,0.0379,0.0555,0.0649,0.0751,0.085,0.0797,0.0537,0.0388,0.0069,0.0204,-0.0004,-0.0314,-0.0503,-0.0647,-0.0772,0.0045,0.0046,0.0047,0.0048,0,-0.0062,-0.0032,0.0041,0.0158,0.0247,0.0351,0.046,0.0565,0.0661,0.0828,0.1069,0.1188,0.1137,0.1025,0.0776,0.0573,-0.0033,0.0213,-0.0091,-0.048,-0.0651,-0.0807,-0.0152,0.0055,0.0054,0.0054,0.0053,0.0053,0.0004,0.0066,0.0151,0.0266,0.037,0.0517,0.0639,0.0798,0.1019,0.1322,0.1395,0.1692,0.139,0.1073,0.0752,0.0081,0.0053,-0.0188,-0.0336,-0.0434,-0.0642,0.0043,0.0203,0.0203,0.0204,0.0204,0.0204,0,0.0075,0.0137,0.0247,0.0389,0.052,0.0558,0.0774,0.0943,0.1258,0.1612,0.1875,0.1994,0.1551,0.103,0.0181,-0.0361,-0.0646,-0.0701,-0.0955,-0.1043,-0.04,-0.0489,-0.0491,-0.0491,-0.0491,-0.049,-0.049,-0.049,0.0115,0.0218,0.0273,0.0489,0.0598,0.0802,0.0945,0.1246,0.1549,0.2058,0.2379,0.2567,0.2193,0.052,-0.0686,-0.1008,-0.1447,-0.1504,-0.1716,-0.1367,-0.1334,-0.1303,-0.143,-0.1629,-0.163,-0.2342,-0.235,-0.2355]}],[{"header":{"parameterUnit":"m.s-1","parameterCategory":2,"la1":30.2991,"la2":30.254,"lo1":-89.0895,"lo2":-89.0444,"dy":0.0017,"dx":0.0017,"nx":28,"ny":28,"refTime":"2024-06-24T21:00:00:Z","depth":"2","parameterNumber":2,"parameterNumberName":"U-component_of_CURRENTS"},"data":[0,0,0,0,0,0,0,0,0,0,0,0,0,0,0,0,0,0,0,0,0,0,0,0,0,0,0,0,0,0,0,0,0,0,0,0,0,0,0,0,0,0,0,0,0,0,0,0,0,0,0,0,0,0,0,0,0,0,0.3048,0.3049,0,0.3144,0.3144,0.3145,0.3199,0.32,0.3201,0.3202,0.3296,0.3298,0.3299,0,0,0,0,0,0,0,0,0,0,0,0,0,0.3065,0.3063,0.3047,0.3049,0.3052,0.3144,0.3145,0.3145,0.3199,0.32,0.3202,0.3203,0.3296,0.3298,0.3299,0,0,0,0,0,0,0,0,0,0,0,0,0,0.309,0.3062,0.3047,0.3097,0.3103,0.3144,0.3145,0.3145,0.3199,0.32,0.3202,0.3203,0.3295,0.3297,0.33,0.3282,0,0,0.3307,0.3308,0,0,0,0,0,0,0,0,0.3088,0.3087,0.3087,0.3094,0.3101,0.317,0.3186,0.3194,0.3198,0.3152,0.3202,0.3204,0.3259,0.3264,0.3265,0.3286,0.329,0.3307,0.3308,0.3309,0.331,0,0,0,0,0,0,0,0.3086,0.3085,0.3076,0.309,0.3098,0.3169,0.3171,0.3188,0.3188,0.3156,0.3163,0.3189,0.3261,0.3263,0.3268,0.3292,0.3307,0.3309,0.331,0.3311,0.3414,0.3416,0,0,0,0,0,0,0.3083,0.3081,0.3073,0.308,0.3109,0.3167,0.317,0.3138,0.3188,0.32,0.3187,0.3191,0.3258,0.3265,0.3271,0.3471,0.3309,0.3311,0.3313,0.3413,0.3415,0.3416,0,0,0,0,0,0,0.3082,0.3078,0.3069,0.3095,0.31,0.3165,0.3129,0.3139,0.3202,0.3213,0.3223,0.3248,0.326,0.3268,0.3386,0.3467,0.3312,0.3314,0.3411,0.3413,0.3415,0.373,0,0,0,0,0,0,0.308,0.3076,0.308,0.3092,0.3099,0.3145,0.3129,0.314,0.3216,0.3223,0.3267,0.3274,0.3261,0.3384,0.3389,0.3467,0.3316,0.3409,0.3412,0.3415,0.3718,0.3742,0.3764,0,0,0,0,0,0.308,0.3132,0.3077,0.308,0.3089,0.3149,0.316,0.3206,0.3218,0.3263,0.3325,0.3276,0.3399,0.339,0.3395,0.3475,0.3408,0.3411,0.3414,0.3707,0.3738,0.3763,0,0,0,0,0,0,0.318,0.3142,0.3084,0.3123,0.3137,0.3164,0.3253,0.324,0.3317,0.3345,0.3341,0.3354,0.3484,0.3414,0.3403,0.3495,0.3375,0.338,0.3596,0.3624,0.3646,0.3637,0.3318,0,0,0,0,0,0.318,0.3193,0.3157,0.3199,0.3218,0.3224,0.3266,0.3268,0.3327,0.3363,0.3413,0.3437,0.3483,0.3511,0.3538,0.3605,0.3575,0.3633,0.3656,0.3677,0.3663,0.3725,0.3756,0.3426,0.3426,0.3426,0,0,0.3233,0.3222,0.3227,0.322,0.3249,0.3301,0.3257,0.3341,0.3416,0.3361,0.3543,0.3552,0.3524,0.363,0.3669,0.3595,0.3763,0.3681,0.3701,0.3674,0.3733,0.3765,0.3795,0.3428,0.3428,0.3428,0,0,0.3357,0.3332,0.3368,0.3369,0.3398,0.3423,0.3454,0.3497,0.3562,0.3672,0.3676,0.3732,0.38,0.3807,0.3806,0.3947,0.3904,0.3944,0.4051,0.4116,0.4145,0.417,0.4232,0.426,0.3933,0.3934,0.3934,0,0.3414,0.3403,0.3406,0.3434,0.3463,0.3487,0.3531,0.362,0.3707,0.3739,0.3767,0.385,0.3869,0.3944,0.4026,0.4007,0.4044,0.3977,0.4156,0.4179,0.42,0.4256,0.4283,0.3949,0.3947,0.3946,0.3944,0,0.3524,0.3507,0.3569,0.3582,0.3644,0.3695,0.3772,0.3891,0.3965,0.3963,0.4078,0.4115,0.4119,0.4158,0.4167,0.4298,0.4284,0.4215,0.4111,0.4254,0.4302,0.4325,0.3971,0.3966,0.3961,0.3957,0,0,0.3622,0.362,0.363,0.3601,0.3688,0.3738,0.3946,0.4035,0.412,0.421,0.4294,0.4394,0.4346,0.434,0.4344,0.4426,0.4666,0.4421,0.4417,0.4527,0.4855,0.4664,0.4669,0.4677,0.4681,0.4685,0.4855,0,0.3673,0.3699,0.372,0.3788,0.3798,0.3883,0.4062,0.4159,0.4253,0.4375,0.4385,0.4464,0.4436,0.4472,0.4554,0.4634,0.4731,0.4626,0.4655,0.4655,0.4505,0.4688,0.4361,0.4468,0.4876,0.488,0.4883,0,0.3736,0.3725,0.3791,0.3794,0.3822,0.3908,0.4111,0.4251,0.4416,0.4485,0.4524,0.4538,0.4666,0.464,0.4807,0.4765,0.4843,0.4897,0.4902,0.4612,0.4503,0.4371,0.4492,0.4919,0.4916,0.4913,0.4911,0,0.3758,0.3755,0.3811,0.3813,0.3902,0.398,0.4061,0.4243,0.436,0.4541,0.4612,0.4689,0.4775,0.4874,0.4971,0.4939,0.5171,0.5095,0.4981,0.4968,0.4622,0.4569,0.5236,0.5235,0.5235,0.5234,0.5234,0,0.3766,0.3763,0.3804,0.3809,0.389,0.3959,0.409,0.4219,0.439,0.4478,0.4629,0.4687,0.4863,0.498,0.5047,0.508,0.5206,0.5034,0.5008,0.4721,0.4677,0.4972,0.4939,0.5241,0.5239,0.5238,0.5237,0,0.374,0.3794,0.3802,0.3863,0.3899,0.3954,0.4059,0.4111,0.4347,0.4496,0.4571,0.4757,0.4913,0.5061,0.5239,0.5147,0.5212,0.5197,0.4851,0.4778,0.4955,0.4936,0.5072,0.5067,0.5063,0.5059,0.5056,0,0.3695,0.3726,0.3818,0.3836,0.3841,0.3912,0.3953,0.4109,0.4127,0.4463,0.4471,0.4741,0.4798,0.4983,0.4999,0.509,0.5193,0.474,0.4565,0.4982,0.4944,0.4932,0.4919,0.4275,0.4266,0.4259,0.4253,0,0.3556,0.3659,0.3669,0.3718,0.3738,0.3776,0.3778,0.3817,0.4033,0.4181,0.4315,0.4426,0.4647,0.4532,0.4665,0.4641,0.4687,0.4578,0.5155,0.4329,0.4233,0.4194,0.4208,0.4186,0.4192,0.4197,0.4201,0.4203,0.3434,0.3417,0.3482,0.3532,0.3562,0.3568,0.3524,0.3544,0.3629,0.3779,0.3957,0.4031,0.4117,0.4111,0.4044,0.406,0.435,0.4129,0.4153,0.4185,0.4023,0.392,0.3787,0.3791,0.3795,0.3798,0.3801,0,0.3185,0.3226,0.3245,0.329,0.3248,0.34,0.3354,0.3286,0.3275,0.3432,0.3525,0.3311,0.3267,0.3441,0.337,0.3348,0.3338,0.3202,0.3167,0.3238,0.3301,0.3092,0.2611,0.2606,0.2602,0.2598,0,0,0.3044,0.2985,0.303,0.2958,0.3047,0.2931,0.2902,0.2898,0.2888,0.2838,0.2859,0.3064,0.3269,0.2844,0.2836,0.271,0.2935,0.2615,0.3584,0.3613,0.3668,0.3869,0.3632,0,0,0,0,0]},{"header":{"parameterUnit":"m.s-1","parameterCategory":2,"la1":30.2991,"la2":30.254,"lo1":-89.0895,"lo2":-89.0444,"dy":0.0017,"dx":0.0017,"nx":28,"ny":28,"refTime":"2024-06-24T21:00:00:Z","depth":"2","parameterNumber":3,"parameterNumberName":"V-component_of_CURRENTS"},"data":[0,0,0,0,0,0,0,0,0,0,0,0,0,0,0,0,0,0,0,0,0,0,0,0,0,0,0,0,0,0,0,0,0,0,0,0,0,0,0,0,0,0,0,0,0,0,0,0,0,0,0,0,0,0,0,0,0,0,0.0223,0.0222,0,0.0129,0.0128,0.0127,-0.0023,-0.0026,-0.0029,-0.0032,-0.0247,-0.025,-0.0252,0,0,0,0,0,0,0,0,0,0,0,0,0,0.0136,0.014,0.0223,0.0222,0.022,0.0129,0.0128,0.0127,-0.0022,-0.0026,-0.0029,-0.0033,-0.0246,-0.0249,-0.0253,0,0,0,0,0,0,0,0,0,0,0,0,0,0.0125,0.0141,0.0223,0.0133,0.0123,0.0129,0.0128,0.0127,-0.0021,-0.0026,-0.003,-0.0035,-0.0245,-0.0249,-0.0253,-0.0191,0,0,-0.0267,-0.0269,0,0,0,0,0,0,0,0,0.0126,0.0128,0.0147,0.0139,0.0128,0.0057,0.0018,0.0013,-0.002,0.0037,-0.0032,-0.0037,-0.0155,-0.0167,-0.0169,-0.0201,-0.021,-0.0267,-0.027,-0.0272,-0.0273,0,0,0,0,0,0,0,0.0127,0.0131,0.0189,0.0146,0.0135,0.0049,0.0044,0.0017,-0.0033,0.0031,0.002,0.0006,-0.0161,-0.0164,-0.0175,-0.0213,-0.0267,-0.0271,-0.0274,-0.0275,-0.0326,-0.0325,0,0,0,0,0,0,0.0146,0.0134,0.0192,0.0186,0.0112,0.0055,0.0049,0.0087,-0.003,-0.0052,0.001,-0.0001,-0.0154,-0.017,-0.0184,-0.028,-0.0272,-0.0276,-0.0278,-0.0327,-0.0326,-0.0324,0,0,0,0,0,0,0.0146,0.0155,0.0195,0.015,0.0149,0.0062,0.0105,0.0088,0.0016,-0.0046,-0.0071,-0.0053,-0.0158,-0.0177,-0.0296,-0.0284,-0.0278,-0.0282,-0.0329,-0.0327,-0.0325,-0.037,0,0,0,0,0,0,0.0145,0.0157,0.016,0.0155,0.0152,0.0172,0.0108,0.0089,0.0017,0.0,-0.0106,-0.0127,-0.0163,-0.029,-0.0301,-0.029,-0.0285,-0.0331,-0.0328,-0.0326,-0.037,-0.037,-0.0369,0,0,0,0,0,0.0143,0.0128,0.0163,0.0167,0.0174,0.0172,0.0163,0.0085,0.0018,-0.0,-0.0114,-0.0127,-0.0278,-0.0295,-0.0307,-0.0298,-0.0332,-0.0329,-0.0326,-0.037,-0.037,-0.0369,0,0,0,0,0,0,0.0057,0.0113,0.0148,0.0148,0.0166,0.0144,0.0087,0.0062,-0.0033,-0.0081,-0.0155,-0.0182,-0.0273,-0.0269,-0.0284,-0.0294,-0.0286,-0.0286,-0.0315,-0.0315,-0.0315,-0.022,-0.0289,0,0,0,0,0,0.0066,0.0091,0.0137,0.0138,0.0138,0.012,0.0092,0.007,0.0,-0.0049,-0.0144,-0.021,-0.0246,-0.0282,-0.0325,-0.0347,-0.0332,-0.0328,-0.0327,-0.0328,-0.0253,-0.0281,-0.0278,-0.0315,-0.0315,-0.0315,0,0,0.0034,0.0065,0.0077,0.0124,0.0115,0.0138,0.0088,0.005,0.004,-0.0053,-0.0178,-0.0243,-0.026,-0.0305,-0.0334,-0.0317,-0.0314,-0.0324,-0.0325,-0.0248,-0.0278,-0.0275,-0.0272,-0.0313,-0.0313,-0.0313,0,0,0.001,0.0016,0.0054,0.0086,0.0102,0.0087,0.0072,0.0035,-0.0025,-0.0093,-0.0171,-0.0218,-0.0315,-0.0301,-0.03,-0.0301,-0.0332,-0.0333,-0.0244,-0.0277,-0.0274,-0.0271,-0.0282,-0.028,-0.0311,-0.0311,-0.0311,0,-0.0024,0.0062,0.0051,0.0111,0.013,0.0065,0.0119,0.006,-0.0028,-0.004,-0.0141,-0.0221,-0.027,-0.0239,-0.0251,-0.0294,-0.0338,-0.0265,-0.0279,-0.0276,-0.0273,-0.0283,-0.0281,-0.0313,-0.0312,-0.0312,-0.0312,0,0.0029,0.0092,0.0089,0.0173,0.0174,0.019,0.0161,0.0089,-0.0008,-0.0014,-0.0072,-0.0156,-0.0162,-0.0199,-0.0236,-0.021,-0.0262,-0.0308,-0.0291,-0.0272,-0.0284,-0.0281,-0.0315,-0.0315,-0.0314,-0.0314,0,0,0.0017,0.0122,0.0134,0.0204,0.0226,0.0233,0.0187,0.0195,0.018,0.0072,0.0078,0.002,-0.0015,-0.0009,-0.0075,-0.0097,-0.0143,-0.0198,-0.02,-0.0222,-0.0238,-0.0297,-0.0299,-0.0256,-0.0254,-0.0253,-0.0271,0,0.009,0.0212,0.0249,0.0335,0.0387,0.0354,0.0326,0.031,0.0245,0.0196,0.0159,0.0126,0.0051,0.0023,-0.0009,-0.0113,-0.013,-0.0132,-0.0233,-0.0232,-0.0302,-0.0294,-0.0266,-0.0282,-0.0267,-0.0266,-0.0266,0,0.0175,0.0245,0.0348,0.0451,0.0468,0.049,0.0469,0.0458,0.0411,0.0359,0.0351,0.0289,0.0283,0.0167,0.0078,0.0046,-0.0065,-0.0153,-0.0158,-0.0169,-0.0282,-0.0287,-0.0275,-0.0259,-0.026,-0.026,-0.0261,0,0.0179,0.033,0.0396,0.0439,0.0503,0.0526,0.0541,0.0518,0.0529,0.0476,0.0493,0.0435,0.0418,0.0272,0.0128,0.0068,-0.001,-0.0106,-0.024,-0.0246,-0.0198,-0.0202,-0.0153,-0.0153,-0.0153,-0.0153,-0.0153,0,0.0254,0.0329,0.0402,0.0448,0.0516,0.0563,0.0621,0.0598,0.0621,0.0692,0.0596,0.0657,0.0428,0.0361,0.0178,0.0007,0.0045,-0.0182,-0.0244,-0.0217,-0.0222,-0.017,-0.0172,-0.0154,-0.0154,-0.0153,-0.0153,0,0.026,0.0309,0.0398,0.0487,0.0519,0.0557,0.0694,0.076,0.0748,0.0831,0.0831,0.0821,0.0735,0.052,0.0308,0.0112,-0.0075,-0.0147,-0.0089,-0.0144,-0.0306,-0.0309,-0.0299,-0.0301,-0.0303,-0.0304,-0.0305,0,0.0283,0.0315,0.0405,0.0455,0.0507,0.0598,0.0689,0.0765,0.0902,0.0977,0.1079,0.1015,0.1024,0.0707,0.0342,0.001,-0.0034,-0.0201,-0.0283,-0.0254,-0.0316,-0.0317,-0.0318,-0.0247,-0.0248,-0.0249,-0.0249,0,0.0331,0.0323,0.04,0.0493,0.0597,0.0748,0.0939,0.1063,0.1181,0.128,0.1474,0.1472,0.1155,0.085,0.0334,0.0108,-0.0163,-0.0225,-0.0186,-0.023,-0.0212,-0.0271,-0.0272,-0.0254,-0.0253,-0.0253,-0.0252,-0.0252,0.0359,0.0408,0.0487,0.0594,0.0714,0.0949,0.1128,0.1363,0.1593,0.177,0.1769,0.1736,0.1314,0.0679,0.0281,-0.0171,-0.0166,-0.0346,-0.0341,-0.0337,-0.0342,-0.033,-0.0393,-0.0393,-0.0394,-0.0394,-0.0394,0,0.0445,0.0514,0.0612,0.0776,0.0963,0.0995,0.1339,0.154,0.1865,0.193,0.2034,0.163,0.1245,0.0768,0.0093,-0.0317,-0.0339,-0.0437,-0.0374,-0.0367,-0.0361,-0.0366,-0.0424,-0.0425,-0.0426,-0.0427,0,0,0.0504,0.0641,0.0715,0.1017,0.1115,0.1428,0.1644,0.1862,0.2013,0.211,0.2043,0.1907,0.1338,0.0846,0.0314,-0.0053,-0.0119,-0.0128,-0.0065,0.0078,0.0089,-0.0275,-0.0272,0,0,0,0,0]}],[{"header":{"parameterUnit":"m.s-1","parameterCategory":2,"la1":30.2991,"la2":30.254,"lo1":-89.0895,"lo2":-89.0444,"dy":0.0017,"dx":0.0017,"nx":28,"ny":28,"refTime":"2024-06-24T21:00:00:Z","depth":"4","parameterNumber":2,"parameterNumberName":"U-component_of_CURRENTS"},"data":[0,0,0,0,0,0,0,0,0,0,0,0,0,0,0,0,0,0,0,0,0,0,0,0,0,0,0,0,0,0,0,0,0,0,0,0,0,0,0,0,0,0,0,0,0,0,0,0,0,0,0,0,0,0,0,0,0,0,0.1137,0.1139,0,0.1229,0.123,0.1231,0.1298,0.1299,0.13,0.13,0.1396,0.1397,0.1399,0,0,0,0,0,0,0,0,0,0,0,0,0,0.1037,0.1039,0.1137,0.1139,0.114,0.1229,0.123,0.1231,0.1298,0.1299,0.13,0.1301,0.1395,0.1397,0.1399,0,0,0,0,0,0,0,0,0,0,0,0,0,0.1099,0.1039,0.1137,0.1185,0.119,0.1229,0.123,0.1232,0.1298,0.1299,0.13,0.1301,0.1394,0.1397,0.14,0.1396,0,0,0.1408,0.141,0,0,0,0,0,0,0,0,0.1095,0.1102,0.1177,0.1182,0.1188,0.1255,0.123,0.1287,0.1298,0.1256,0.13,0.1302,0.1349,0.1355,0.1368,0.1401,0.1405,0.1409,0.141,0.1412,0.1412,0,0,0,0,0,0,0,0.1091,0.1099,0.1172,0.1178,0.1185,0.1208,0.1217,0.1241,0.1294,0.1259,0.1265,0.1277,0.1352,0.1365,0.1371,0.1406,0.1409,0.1411,0.1413,0.1414,0.1614,0.1617,0,0,0,0,0,0,0.108,0.1094,0.117,0.1175,0.1145,0.1209,0.122,0.1231,0.1294,0.1305,0.1276,0.128,0.136,0.1368,0.1375,0.1503,0.1411,0.1414,0.1416,0.161,0.1615,0.1618,0,0,0,0,0,0,0.1078,0.1086,0.1166,0.1138,0.115,0.1209,0.1222,0.1232,0.1283,0.1307,0.1318,0.132,0.1361,0.1371,0.1436,0.1503,0.1415,0.1418,0.1606,0.1612,0.1617,0.1678,0,0,0,0,0,0,0.1074,0.1084,0.1105,0.1137,0.1151,0.1208,0.1221,0.1233,0.1287,0.1294,0.1348,0.1356,0.1363,0.1432,0.1439,0.1505,0.142,0.1601,0.1608,0.1615,0.1671,0.1684,0.1696,0,0,0,0,0,0.107,0.108,0.1106,0.1116,0.1173,0.121,0.1219,0.1264,0.1289,0.1313,0.136,0.1356,0.1481,0.1436,0.1444,0.1512,0.1598,0.1606,0.1614,0.1665,0.1682,0.1696,0,0,0,0,0,0,0.1043,0.1089,0.1117,0.1142,0.1187,0.1222,0.1253,0.1283,0.1339,0.1361,0.1381,0.1393,0.1489,0.149,0.144,0.1596,0.1548,0.1558,0.1584,0.16,0.1612,0.1664,0.1423,0,0,0,0,0,0.1048,0.1071,0.112,0.1143,0.1172,0.1222,0.125,0.1285,0.133,0.1358,0.1396,0.1454,0.1522,0.155,0.1603,0.1662,0.1701,0.1722,0.1734,0.1744,0.1797,0.1893,0.1918,0.1645,0.1645,0.1645,0,0,0.1046,0.1072,0.1089,0.114,0.1183,0.1239,0.1243,0.1298,0.1348,0.1357,0.1444,0.15,0.1553,0.164,0.1683,0.1648,0.1842,0.1755,0.1763,0.1811,0.1904,0.193,0.1954,0.1651,0.165,0.1649,0,0,0.1053,0.1081,0.1118,0.1166,0.1237,0.1263,0.1288,0.1353,0.1389,0.1475,0.1513,0.1603,0.1686,0.1739,0.1777,0.1888,0.1913,0.1919,0.2011,0.2102,0.2125,0.2146,0.2213,0.224,0.1913,0.1913,0.1913,0,0.1055,0.1113,0.1133,0.1195,0.1247,0.1282,0.1353,0.1385,0.1463,0.1515,0.152,0.1726,0.1741,0.188,0.193,0.1916,0.1978,0.1937,0.2117,0.2138,0.2158,0.2223,0.2251,0.1917,0.1917,0.1916,0.1916,0,0.1103,0.1172,0.1198,0.1289,0.1335,0.1398,0.1452,0.1497,0.1554,0.1621,0.1783,0.1837,0.1973,0.1988,0.1997,0.2166,0.2166,0.2123,0.2069,0.2189,0.225,0.2278,0.1923,0.1921,0.192,0.1919,0,0,0.1051,0.1206,0.1223,0.1292,0.1402,0.1432,0.1512,0.1607,0.1677,0.1793,0.1928,0.2063,0.2143,0.2197,0.2226,0.2301,0.2464,0.2294,0.2297,0.2348,0.2686,0.2461,0.247,0.2465,0.2471,0.2476,0.2663,0,0.1097,0.1226,0.1294,0.1415,0.1487,0.1552,0.1622,0.171,0.1788,0.1911,0.2035,0.2185,0.2204,0.2292,0.2388,0.2455,0.2549,0.2419,0.2578,0.2584,0.2357,0.2498,0.2494,0.2684,0.2691,0.2695,0.2699,0,0.1122,0.121,0.1345,0.1491,0.1531,0.1607,0.172,0.1796,0.1959,0.2035,0.2228,0.2335,0.2531,0.2495,0.2733,0.2664,0.2719,0.2746,0.2752,0.2552,0.2412,0.2548,0.275,0.2746,0.2742,0.2739,0.2736,0,0.1041,0.1234,0.1337,0.1395,0.1561,0.163,0.1724,0.1861,0.1924,0.2147,0.2238,0.2495,0.2637,0.2775,0.2865,0.2838,0.3073,0.3012,0.287,0.2853,0.2967,0.2943,0.3193,0.3193,0.3193,0.3192,0.3191,0,0.1032,0.1116,0.1323,0.1366,0.1483,0.1629,0.175,0.1843,0.2024,0.2142,0.2334,0.2457,0.2726,0.2874,0.2939,0.2994,0.3144,0.2943,0.2907,0.2985,0.2961,0.2985,0.2959,0.3199,0.3197,0.3196,0.3195,0,0.0909,0.106,0.1159,0.1362,0.1439,0.1515,0.1731,0.1812,0.1992,0.2147,0.2239,0.25,0.2712,0.2886,0.3103,0.3057,0.312,0.309,0.318,0.3136,0.2833,0.2808,0.2997,0.2991,0.2986,0.2981,0.2978,0,0.0854,0.0905,0.1098,0.1167,0.127,0.1434,0.1539,0.1759,0.1852,0.2137,0.22,0.2483,0.2647,0.2782,0.2963,0.309,0.3049,0.3067,0.2968,0.2878,0.2825,0.2807,0.279,0.297,0.2969,0.2967,0.2966,0,0.0726,0.0799,0.0874,0.1019,0.1146,0.1271,0.1463,0.1518,0.179,0.1958,0.2141,0.2292,0.2513,0.2701,0.2811,0.2878,0.3049,0.3014,0.3025,0.2932,0.2848,0.2796,0.2784,0.2949,0.2951,0.2953,0.2954,0,0.0604,0.0626,0.0745,0.0867,0.0997,0.1107,0.1228,0.1414,0.1545,0.1884,0.1948,0.2232,0.2494,0.2589,0.2674,0.2741,0.2727,0.265,0.268,0.2701,0.2515,0.2358,0.2327,0,0,0,0,0,0.0504,0.0547,0.0616,0.0744,0.0855,0.0962,0.1174,0.1312,0.1589,0.1665,0.181,0.2002,0.2204,0.2339,0.2362,0.2545,0.2718,0.2557,0.2637,0.2852,0.2872,0.2678,0,0,0,0,0,0,0.0451,0.0503,0.0562,0.0619,0.0691,0.0827,0.0964,0.1158,0.123,0.1513,0.1637,0.1851,0.2072,0.2166,0.2309,0.2354,0.2361,0.2733,0.2728,0.2841,0.2859,0.2875,0.2683,0,0,0,0,0]},{"header":{"parameterUnit":"m.s-1","parameterCategory":2,"la1":30.2991,"la2":30.254,"lo1":-89.0895,"lo2":-89.0444,"dy":0.0017,"dx":0.0017,"nx":28,"ny":28,"refTime":"2024-06-24T21:00:00:Z","depth":"4","parameterNumber":3,"parameterNumberName":"V-component_of_CURRENTS"},"data":[0,0,0,0,0,0,0,0,0,0,0,0,0,0,0,0,0,0,0,0,0,0,0,0,0,0,0,0,0,0,0,0,0,0,0,0,0,0,0,0,0,0,0,0,0,0,0,0,0,0,0,0,0,0,0,0,0,0,0.0652,0.0652,0,0.062,0.062,0.0619,0.058,0.058,0.058,0.058,0.0533,0.0532,0.053,0,0,0,0,0,0,0,0,0,0,0,0,0,0.0648,0.0648,0.0652,0.0652,0.0652,0.0621,0.062,0.0619,0.058,0.058,0.058,0.058,0.0533,0.0532,0.053,0,0,0,0,0,0,0,0,0,0,0,0,0,0.0632,0.0648,0.0652,0.0633,0.0632,0.0621,0.062,0.0618,0.058,0.058,0.058,0.058,0.0533,0.0532,0.053,0.0524,0,0,0.0525,0.0524,0,0,0,0,0,0,0,0,0.0633,0.0631,0.0636,0.0635,0.0633,0.0609,0.0601,0.0588,0.058,0.0594,0.058,0.058,0.056,0.0556,0.0544,0.0521,0.0519,0.0525,0.0524,0.0523,0.0523,0,0,0,0,0,0,0,0.0634,0.0632,0.0634,0.0636,0.0634,0.0616,0.0613,0.0598,0.0574,0.0593,0.0592,0.0596,0.0558,0.0545,0.0542,0.0519,0.0525,0.0523,0.0522,0.0522,0.047,0.047,0,0,0,0,0,0,0.065,0.0634,0.0636,0.0634,0.0638,0.0617,0.0613,0.0612,0.0575,0.0571,0.0596,0.0595,0.0548,0.0544,0.054,0.0535,0.0523,0.0521,0.052,0.047,0.047,0.0469,0,0,0,0,0,0,0.065,0.065,0.0637,0.0637,0.0635,0.0618,0.0617,0.0612,0.0608,0.0579,0.0573,0.06,0.0548,0.0543,0.0535,0.0533,0.0521,0.0519,0.0471,0.047,0.047,0.0522,0,0,0,0,0,0,0.065,0.065,0.0661,0.0638,0.0636,0.0638,0.0617,0.0612,0.0614,0.0611,0.0579,0.0574,0.0547,0.0538,0.0534,0.053,0.0518,0.0471,0.047,0.047,0.052,0.0523,0.0525,0,0,0,0,0,0.065,0.0663,0.0661,0.0662,0.0649,0.0639,0.0635,0.0618,0.0614,0.0614,0.0595,0.0575,0.053,0.0537,0.0532,0.0528,0.0471,0.0471,0.047,0.0519,0.0522,0.0525,0,0,0,0,0,0,0.0663,0.0661,0.0658,0.0669,0.066,0.0634,0.064,0.0629,0.0613,0.0616,0.0582,0.0575,0.0563,0.054,0.0549,0.0508,0.0493,0.0491,0.0532,0.0535,0.0537,0.0517,0.0516,0,0,0,0,0,0.0675,0.0689,0.0674,0.0687,0.0685,0.0666,0.0664,0.0653,0.0636,0.0629,0.0608,0.0581,0.0553,0.0543,0.0518,0.0506,0.0449,0.0495,0.0497,0.05,0.0477,0.0395,0.0388,0.0467,0.0467,0.0467,0,0,0.0683,0.0688,0.0694,0.0692,0.0685,0.0679,0.0662,0.0666,0.0655,0.0628,0.0615,0.0596,0.0553,0.0534,0.0525,0.0517,0.045,0.0499,0.0501,0.0477,0.0393,0.0385,0.0378,0.0466,0.0466,0.0467,0,0,0.0699,0.0712,0.0719,0.0718,0.0719,0.0706,0.0712,0.0694,0.0678,0.0669,0.064,0.0614,0.0589,0.0545,0.052,0.0519,0.0468,0.0522,0.0517,0.0439,0.0431,0.0424,0.0354,0.034,0.0521,0.0521,0.0521,0,0.0708,0.0718,0.072,0.0725,0.073,0.072,0.0721,0.0702,0.0684,0.0672,0.0672,0.0608,0.058,0.0529,0.0526,0.0522,0.0476,0.0516,0.0441,0.0433,0.0424,0.0355,0.0338,0.0524,0.0523,0.0523,0.0523,0,0.0723,0.0732,0.074,0.0744,0.0746,0.0753,0.0733,0.073,0.0722,0.0698,0.0662,0.0617,0.0573,0.0563,0.0544,0.0476,0.0463,0.0459,0.0436,0.0419,0.0347,0.033,0.0527,0.0526,0.0526,0.0525,0,0,0.0734,0.0745,0.0752,0.076,0.0761,0.0768,0.0754,0.0734,0.0731,0.0694,0.0669,0.0606,0.0585,0.0553,0.0524,0.0453,0.0363,0.0436,0.0431,0.037,0.0194,0.0197,0.0177,0.0353,0.035,0.0348,0.0173,0,0.0742,0.0767,0.0763,0.0782,0.079,0.0782,0.0778,0.0763,0.0743,0.0719,0.0646,0.0623,0.058,0.0577,0.0489,0.0401,0.0316,0.041,0.0215,0.0208,0.0215,0.0156,0.0338,0.016,0.0155,0.0152,0.015,0,0.0757,0.0773,0.0802,0.0814,0.0818,0.0827,0.0836,0.0835,0.0789,0.0771,0.0711,0.0664,0.0555,0.0536,0.0321,0.0389,0.0284,0.0206,0.0198,0.0162,0.0177,0.0174,0.0117,0.012,0.0122,0.0124,0.0126,0,0.0794,0.0799,0.0834,0.0842,0.0854,0.0863,0.0874,0.0857,0.0869,0.0816,0.0813,0.067,0.0622,0.0449,0.0275,0.03,0.004,0.0056,-0.0053,-0.0053,-0.0023,-0.0014,-0.0116,-0.0116,-0.0115,-0.0115,-0.0114,0,0.0813,0.0837,0.0859,0.0887,0.0924,0.0921,0.0966,0.0949,0.0941,0.0955,0.0855,0.0814,0.06,0.0435,0.0264,0.0039,0.0018,-0.0086,-0.0112,0.0006,0.002,-0.0036,-0.0024,-0.0121,-0.012,-0.0119,-0.0118,0,0.0844,0.0865,0.0913,0.0941,0.0952,0.0996,0.1045,0.1072,0.1059,0.1068,0.1058,0.091,0.0697,0.0463,0.0183,0.0046,-0.0174,-0.0246,-0.0114,-0.0124,-0.0211,-0.0195,-0.0391,-0.0393,-0.0394,-0.0395,-0.0396,0,0.0856,0.0891,0.0971,0.101,0.1025,0.1086,0.1129,0.1141,0.1165,0.1121,0.1113,0.0933,0.0805,0.0397,0.0154,-0.02,-0.0232,-0.0347,-0.0287,-0.0241,-0.0247,-0.0228,-0.021,-0.0399,-0.0399,-0.0399,-0.04,0,0.087,0.0926,0.097,0.1064,0.1124,0.119,0.1237,0.1255,0.1267,0.126,0.1148,0.0947,0.0706,0.0398,0.0122,-0.0124,-0.0276,-0.0362,-0.036,-0.0304,-0.0252,-0.0252,-0.0233,-0.0405,-0.0404,-0.0404,-0.0403,0,0.0883,0.0932,0.1016,0.1084,0.118,0.1241,0.1271,0.1271,0.1293,0.1232,0.1191,0.0942,0.0803,0.0436,0.0175,-0.0068,-0.0113,-0.0172,-0.018,-0.0178,-0.0057,0.0044,-0.0068,0,0,0,0,0,0.0869,0.0926,0.1009,0.11,0.1203,0.1257,0.1312,0.1333,0.1338,0.1271,0.1232,0.1009,0.0637,0.0472,0.0227,0.0143,-0.0164,-0.0151,-0.0239,-0.0432,-0.0426,-0.032,0,0,0,0,0,0,0.0866,0.0947,0.1,0.1097,0.1165,0.1273,0.1317,0.132,0.1273,0.1245,0.1044,0.0968,0.0596,0.0782,0.0231,0.0157,0.0072,-0.0319,-0.0324,-0.0435,-0.043,-0.0425,-0.0314,0,0,0,0,0]}]]